QPF
0.03 0.02 0.01 0.00 0.01 0.02 0.01 0.03 0.04 0.04 0.04 0.04 0.06 0.09 0.09 0.08 0.07 0.07 0.08 0.11 0.12 0.08 0.06 0.07 0.08 0.07 0.08 0.07 0.05 0.05 0.04 0.03 0.04 0.05 0.05 0.03 0.03 0.03 0.03 0.02 0.01 0.02 0.03
0.03 0.03 0.01 0.01 0.01 0.01 0.03 0.05 0.06 0.06 0.08 0.09 0.11 0.10 0.11 0.11 0.11 0.10 0.10 0.11 0.12 0.09 0.10 0.10 0.10 0.09 0.08 0.07 0.06 0.06 0.06 0.06 0.05 0.05 0.05 0.03 0.03 0.03 0.03 0.03 0.02 0.02 0.02
0.03 0.02 0.01 0.01 0.01 0.01 0.01 0.03 0.05 0.06 0.09 0.10 0.12 0.15 0.12 0.07 0.10 0.12 0.11 0.09 0.09 0.10 0.14 0.14 0.13 0.12 0.09 0.09 0.09 0.08 0.08 0.06 0.05 0.05 0.06 0.04 0.03 0.03 0.03 0.03 0.03 0.03 0.03
0.03 0.01 0.01 0.01 0.01 0.01 0.02 0.02 0.04 0.06 0.07 0.08 0.08 0.10 0.09 0.07 0.09 0.11 0.09 0.06 0.06 0.05 0.10 0.15 0.14 0.11 0.09 0.09 0.08 0.08 0.08 0.06 0.05 0.05 0.05 0.05 0.04 0.04 0.04 0.03 0.03 0.04 0.03
0.03 0.02 0.02 0.03 0.03 0.02 0.04 0.04 0.05 0.06 0.06 0.06 0.06 0.06 0.07 0.09 0.10 0.11 0.07 0.05 0.05 0.05 0.06 0.08 0.10 0.09 0.08 0.09 0.09 0.09 0.10 0.09 0.07 0.05 0.04 0.04 0.04 0.03 0.03 0.03 0.03 0.03 0.03
0.05 0.04 0.04 0.05 0.04 0.05 0.06 0.07 0.08 0.10 0.09 0.08 0.07 0.07 0.09 0.11 0.10 0.06 0.05 0.05 0.06 0.06 0.05 0.05 0.05 0.05 0.05 0.09 0.10 0.10 0.10 0.11 0.09 0.08 0.08 0.07 0.06 0.05 0.04 0.04 0.03 0.03 0.03
0.04 0.06 0.06 0.06 0.05 0.06 0.06 0.07 0.08 0.10 0.09 0.08 0.07 0.06 0.06 0.06 0.05 0.03 0.03 0.03 0.04 0.05 0.04 0.04 0.04 0.04 0.04 0.05 0.07 0.07 0.09 0.10 0.12 0.13 0.13 0.11 0.10 0.08 0.06 0.04 0.03 0.04 0.04
0.04 0.05 0.04 0.05 0.06 0.06 0.07 0.08 0.09 0.08 0.07 0.06 0.07 0.06 0.06 0.04 0.03 0.02 0.02 0.02 0.02 0.03 0.03 0.02 0.03 0.04 0.05 0.03 0.02 0.05 0.08 0.11 0.14 0.15 0.15 0.14 0.12 0.10 0.09 0.08 0.05 0.04 0.03
0.04 0.03 0.05 0.06 0.06 0.06 0.07 0.08 0.06 0.05 0.04 0.04 0.05 0.05 0.03 0.02 0.02 0.01 0.01 0.02 0.02 0.02 0.02 0.01 0.02 0.03 0.05 0.03 0.02 0.04 0.06 0.09 0.12 0.13 0.16 0.17 0.16 0.14 0.12 0.10 0.08 0.06 0.04
0.03 0.04 0.06 0.07 0.07 0.06 0.05 0.04 0.03 0.03 0.02 0.03 0.04 0.03 0.02 0.01 0.01 0.01 0.01 0.01 0.00 0.01 0.01 0.01 0.01 0.01 0.02 0.02 0.03 0.04 0.04 0.05 0.07 0.09 0.13 0.14 0.14 0.17 0.17 0.14 0.11 0.08 0.06
0.02 0.03 0.04 0.06 0.06 0.05 0.03 0.02 0.02 0.02 0.02 0.03 0.04 0.04 0.03 0.02 0.01 0.02 0.01 0.00 0.00 0.00 0.00 0.00 0.01 0.01 0.01 0.01 0.02 0.02 0.03 0.04 0.04 0.05 0.07 0.09 0.15 0.17 0.13 0.12 0.09 0.07 0.07
0.01 0.01 0.02 0.02 0.03 0.03 0.03 0.04 0.03 0.03 0.03 0.05 0.05 0.03 0.03 0.03 0.03 0.03 0.02 0.01 0.01 0.00 0.00 0.00 0.01 0.01 0.01 0.00 0.01 0.01 0.02 0.03 0.04 0.05 0.06 0.08 0.10 0.07 0.06 0.08 0.08 0.07 0.07
0.03 0.02 0.01 0.02 0.02 0.02 0.03 0.04 0.04 0.04 0.05 0.06 0.06 0.05 0.05 0.04 0.03 0.03 0.03 0.01 0.01 0.00 0.00 0.00 0.01 0.01 0.01 0.01 0.01 0.01 0.02 0.02 0.03 0.04 0.05 0.04 0.04 0.04 0.04 0.04 0.05 0.05 0.07
0.04 0.02 0.02 0.02 0.02 0.02 0.03 0.04 0.03 0.05 0.06 0.06 0.05 0.06 0.05 0.04 0.04 0.02 0.02 0.02 0.01 0.01 0.01 0.01 0.01 0.01 0.01 0.01 0.01 0.01 0.01 0.03 0.04 0.04 0.03 0.03 0.03 0.03 0.03 0.03 0.04 0.03 0.04
0.03 0.03 0.03 0.03 0.03 0.04 0.04 0.04 0.04 0.05 0.05 0.03 0.04 0.05 0.04 0.05 0.05 0.03 0.03 0.02 0.01 0.01 0.01 0.01 0.01 0.01 0.02 0.02 0.02 0.02 0.02 0.03 0.03 0.02 0.02 0.03 0.03 0.03 0.02 0.02 0.03 0.02 0.02
0.03 0.03 0.04 0.05 0.05 0.06 0.06 0.06 0.04 0.04 0.04 0.03 0.04 0.04 0.04 0.03 0.04 0.04 0.04 0.02 0.02 0.01 0.01 0.00 0.01 0.02 0.03 0.02 0.03 0.02 0.03 0.06 0.05 0.04 0.04 0.05 0.05 0.04 0.03 0.03 0.03 0.03 0.03
0.05 0.06 0.06 0.08 0.08 0.08 0.07 0.06 0.04 0.04 0.03 0.03 0.03 0.03 0.03 0.04 0.02 0.04 0.04 0.03 0.03 0.02 0.01 0.01 0.01 0.01 0.01 0.01 0.01 0.02 0.04 0.05 0.06 0.07 0.07 0.07 0.08 0.06 0.04 0.03 0.02 0.02 0.02
0.06 0.05 0.05 0.04 0.04 0.04 0.04 0.03 0.03 0.03 0.03 0.02 0.02 0.03 0.03 0.03 0.02 0.02 0.02 0.03 0.03 0.03 0.02 0.01 0.01 0.02 0.02 0.03 0.02 0.02 0.02 0.03 0.04 0.04 0.04 0.06 0.06 0.06 0.05 0.03 0.02 0.02 0.02
0.04 0.04 0.03 0.02 0.02 0.02 0.02 0.02 0.03 0.03 0.03 0.02 0.03 0.03 0.03 0.02 0.01 0.02 0.02 0.02 0.02 0.03 0.03 0.02 0.01 0.01 0.02 0.03 0.03 0.02 0.01 0.02 0.02 0.03 0.03 0.04 0.04 0.03 0.03 0.02 0.02 0.02 0.02
0.04 0.03 0.03 0.03 0.02 0.02 0.02 0.02 0.03 0.03 0.04 0.04 0.04 0.03 0.03 0.03 0.02 0.02 0.03 0.02 0.02 0.02 0.03 0.02 0.01 0.01 0.01 0.01 0.02 0.02 0.02 0.02 0.02 0.03 0.03 0.04 0.03 0.02 0.02 0.01 0.01 0.01 0.01
0.03 0.04 0.05 0.06 0.06 0.05 0.04 0.04 0.05 0.05 0.06 0.05 0.05 0.03 0.03 0.03 0.04 0.06 0.04 0.03 0.03 0.02 0.03 0.04 0.04 0.03 0.02 0.03 0.02 0.02 0.02 0.02 0.02 0.03 0.03 0.04 0.03 0.02 0.02 0.02 0.01 0.01 0.01
0.08 0.09 0.10 0.10 0.08 0.06 0.05 0.06 0.06 0.06 0.06 0.04 0.03 0.03 0.03 0.03 0.05 0.06 0.05 0.04 0.03 0.03 0.04 0.04 0.03 0.03 0.03 0.03 0.02 0.03 0.03 0.02 0.03 0.03 0.04 0.04 0.03 0.02 0.02 0.01 0.02 0.01 0.01
0.10 0.11 0.12 0.11 0.10 0.10 0.11 0.09 0.08 0.06 0.05 0.04 0.03 0.03 0.04 0.03 0.04 0.03 0.03 0.05 0.05 0.05 0.04 0.03 0.03 0.02 0.03 0.03 0.03 0.03 0.03 0.03 0.02 0.02 0.02 0.02 0.02 0.01 0.01 0.01 0.02 0.02 0.02
0.10 0.13 0.14 0.12 0.10 0.09 0.10 0.09 0.09 0.08 0.06 0.05 0.04 0.04 0.03 0.03 0.03 0.03 0.03 0.03 0.03 0.04 0.05 0.04 0.02 0.02 0.02 0.03 0.03 0.02 0.02 0.02 0.02 0.02 0.02 0.02 0.02 0.01 0.02 0.02 0.02 0.02 0.02
0.11 0.12 0.12 0.10 0.08 0.08 0.09 0.08 0.08 0.07 0.07 0.06 0.05 0.05 0.04 0.04 0.04 0.05 0.04 0.03 0.03 0.03 0.05 0.04 0.04 0.03 0.02 0.02 0.02 0.02 0.02 0.01 0.01 0.01 0.01 0.02 0.01 0.01 0.01 0.01 0.02 0.02 0.02
0.11 0.12 0.11 0.10 0.09 0.09 0.10 0.11 0.11 0.10 0.10 0.08 0.08 0.06 0.05 0.04 0.04 0.06 0.06 0.05 0.04 0.03 0.04 0.04 0.04 0.03 0.02 0.02 0.02 0.01 0.01 0.01 0.01 0.01 0.01 0.02 0.01 0.01 0.01 0.01 0.01 0.01 0.02
MSLP
1016.89 1017.20 1017.48 1017.71 1017.91 1018.08 1018.21 1018.32 1018.41 1018.48 1018.55 1018.63 1018.75 1018.91 1019.12 1019.38 1019.67 1019.98 1020.29 1020.58 1020.84 1021.05 1021.23 1021.39 1021.52 1021.66 1021.79 1021.93 1022.07 1022.22 1022.37 1022.51 1022.65 1022.79 1022.93 1023.08 1023.22 1023.35 1023.47 1023.56 1023.62 1023.64 1023.63
1017.03 1017.34 1017.61 1017.85 1018.07 1018.25 1018.41 1018.52 1018.61 1018.68 1018.74 1018.80 1018.90 1019.03 1019.21 1019.44 1019.70 1019.98 1020.27 1020.54 1020.79 1021.01 1021.21 1021.39 1021.55 1021.70 1021.85 1022.00 1022.14 1022.27 1022.38 1022.50 1022.60 1022.72 1022.84 1022.96 1023.09 1023.21 1023.32 1023.40 1023.45 1023.45 1023.42
1017.06 1017.34 1017.61 1017.88 1018.13 1018.35 1018.54 1018.70 1018.82 1018.90 1018.97 1019.03 1019.11 1019.22 1019.36 1019.53 1019.74 1019.97 1020.20 1020.43 1020.66 1020.87 1021.07 1021.26 1021.44 1021.62 1021.80 1021.95 1022.09 1022.21 1022.31 1022.40 1022.48 1022.56 1022.65 1022.76 1022.87 1022.98 1023.07 1023.14 1023.17 1023.16 1023.11
1016.99 1017.25 1017.53 1017.81 1018.10 1018.38 1018.63 1018.84 1019.00 1019.12 1019.21 1019.29 1019.36 1019.44 1019.54 1019.66 1019.80 1019.96 1020.12 1020.29 1020.46 1020.63 1020.81 1021.00 1021.20 1021.40 1021.59 1021.76 1021.90 1022.02 1022.11 1022.17 1022.23 1022.29 1022.36 1022.44 1022.53 1022.62 1022.70 1022.75 1022.77 1022.75 1022.69
1016.90 1017.13 1017.40 1017.70 1018.02 1018.34 1018.65 1018.91 1019.13 1019.30 1019.42 1019.52 1019.59 1019.66 1019.73 1019.81 1019.89 1019.97 1020.05 1020.14 1020.24 1020.36 1020.50 1020.66 1020.84 1021.03 1021.23 1021.40 1021.55 1021.67 1021.75 1021.80 1021.85 1021.89 1021.94 1022.01 1022.08 1022.16 1022.23 1022.26 1022.27 1022.24 1022.17
1016.82 1017.01 1017.26 1017.57 1017.91 1018.26 1018.61 1018.92 1019.18 1019.39 1019.56 1019.68 1019.77 1019.85 1019.91 1019.95 1019.99 1020.01 1020.02 1020.03 1020.05 1020.09 1020.17 1020.27 1020.42 1020.58 1020.75 1020.91 1021.05 1021.16 1021.24 1021.30 1021.33 1021.37 1021.42 1021.48 1021.55 1021.62 1021.67 1021.70 1021.69 1021.66 1021.59
1016.77 1016.92 1017.15 1017.44 1017.78 1018.14 1018.50 1018.84 1019.13 1019.38 1019.58 1019.74 1019.87 1019.97 1020.04 1020.08 1020.09 1020.07 1020.03 1019.98 1019.92 1019.88 1019.87 1019.91 1019.98 1020.09 1020.21 1020.34 1020.46 1020.55 1020.63 1020.68 1020.73 1020.78 1020.83 1020.90 1020.97 1021.04 1021.08 1021.11 1021.09 1021.05 1020.99
1016.75 1016.87 1017.06 1017.32 1017.64 1017.98 1018.34 1018.67 1018.98 1019.25 1019.48 1019.68 1019.84 1019.99 1020.09 1020.16 1020.18 1020.16 1020.09 1019.98 1019.86 1019.75 1019.65 1019.60 1019.58 1019.60 1019.66 1019.73 1019.81 1019.88 1019.95 1020.01 1020.07 1020.13 1020.21 1020.29 1020.38 1020.45 1020.50 1020.53 1020.51 1020.47 1020.41
1016.71 1016.80 1016.95 1017.18 1017.46 1017.77 1018.09 1018.41 1018.71 1018.98 1019.24 1019.47 1019.69 1019.89 1020.05 1020.17 1020.23 1020.23 1020.16 1020.03 1019.87 1019.69 1019.51 1019.36 1019.25 1019.18 1019.14 1019.14 1019.16 1019.20 1019.25 1019.31 1019.39 1019.48 1019.59 1019.70 1019.81 1019.90 1019.96 1019.99 1019.98 1019.94 1019.88
1016.59 1016.65 1016.78 1016.96 1017.20 1017.47 1017.76 1018.04 1018.32 1018.59 1018.86 1019.13 1019.40 1019.66 1019.89 1020.07 1020.19 1020.23 1020.19 1020.07 1019.88 1019.66 1019.42 1019.18 1018.98 1018.81 1018.68 1018.60 1018.56 1018.56 1018.58 1018.64 1018.73 1018.85 1018.98 1019.12 1019.26 1019.37 1019.46 1019.50 1019.50 1019.47 1019.43
1016.32 1016.37 1016.48 1016.63 1016.84 1017.07 1017.31 1017.56 1017.82 1018.09 1018.37 1018.67 1018.98 1019.30 1019.59 1019.85 1020.04 1020.14 1020.14 1020.04 1019.86 1019.62 1019.33 1019.04 1018.75 1018.50 1018.29 1018.13 1018.03 1017.97 1017.97 1018.01 1018.11 1018.24 1018.39 1018.56 1018.73 1018.87 1018.98 1019.04 1019.07 1019.07 1019.05
1015.84 1015.90 1016.01 1016.15 1016.33 1016.53 1016.75 1016.98 1017.23 1017.49 1017.79 1018.11 1018.46 1018.82 1019.17 1019.49 1019.74 1019.90 1019.96 1019.90 1019.75 1019.51 1019.21 1018.88 1018.55 1018.24 1017.96 1017.73 1017.56 1017.46 1017.41 1017.43 1017.52 1017.65 1017.82 1018.01 1018.20 1018.37 1018.50 1018.60 1018.66 1018.69 1018.70
1015.17 1015.25 1015.36 1015.51 1015.68 1015.88 1016.09 1016.31 1016.56 1016.82 1017.13 1017.47 1017.84 1018.24 1018.63 1018.99 1019.30 1019.51 1019.62 1019.62 1019.51 1019.30 1019.02 1018.69 1018.34 1018.00 1017.68 1017.40 1017.17 1017.02 1016.93 1016.91 1016.97 1017.09 1017.25 1017.45 1017.65 1017.84 1018.01 1018.15 1018.24 1018.32 1018.37
1014.32 1014.43 1014.56 1014.73 1014.91 1015.12 1015.34 1015.57 1015.82 1016.10 1016.42 1016.77 1017.16 1017.57 1017.98 1018.37 1018.72 1018.98 1019.14 1019.19 1019.14 1018.98 1018.75 1018.45 1018.12 1017.77 1017.43 1017.12 1016.86 1016.66 1016.52 1016.46 1016.47 1016.55 1016.70 1016.88 1017.08 1017.29 1017.49 1017.66 1017.80 1017.92 1018.02
1013.37 1013.50 1013.66 1013.85 1014.06 1014.28 1014.53 1014.78 1015.05 1015.34 1015.67 1016.03 1016.42 1016.83 1017.25 1017.65 1018.02 1018.31 1018.52 1018.63 1018.64 1018.56 1018.39 1018.16 1017.87 1017.55 1017.22 1016.90 1016.61 1016.37 1016.18 1016.07 1016.03 1016.06 1016.16 1016.31 1016.50 1016.71 1016.92 1017.12 1017.30 1017.47 1017.62
1012.38 1012.54 1012.71 1012.92 1013.16 1013.41 1013.68 1013.95 1014.24 1014.55 1014.89 1015.25 1015.63 1016.04 1016.45 1016.85 1017.22 1017.54 1017.79 1017.96 1018.05 1018.05 1017.96 1017.80 1017.58 1017.32 1017.03 1016.72 1016.42 1016.15 1015.91 1015.74 1015.63 1015.60 1015.64 1015.75 1015.91 1016.10 1016.31 1016.53 1016.75 1016.96 1017.16
1011.42 1011.58 1011.77 1012.00 1012.24 1012.51 1012.80 1013.09 1013.40 1013.72 1014.06 1014.41 1014.78 1015.17 1015.57 1015.96 1016.34 1016.68 1016.97 1017.20 1017.36 1017.44 1017.45 1017.39 1017.25 1017.06 1016.81 1016.54 1016.25 1015.96 1015.69 1015.46 1015.30 1015.20 1015.17 1015.21 1015.32 1015.48 1015.68 1015.90 1016.13 1016.37 1016.60
1010.51 1010.67 1010.87 1011.09 1011.34 1011.61 1011.90 1012.20 1012.51 1012.83 1013.16 1013.50 1013.86 1014.24 1014.62 1015.01 1015.39 1015.75 1016.08 1016.36 1016.59 1016.76 1016.86 1016.89 1016.84 1016.72 1016.54 1016.31 1016.04 1015.75 1015.47 1015.20 1014.98 1014.82 1014.73 1014.70 1014.75 1014.86 1015.02 1015.23 1015.46 1015.70 1015.95
1009.67 1009.82 1009.99 1010.20 1010.44 1010.70 1010.98 1011.27 1011.56 1011.87 1012.19 1012.52 1012.86 1013.23 1013.60 1013.99 1014.37 1014.75 1015.11 1015.45 1015.74 1015.98 1016.16 1016.27 1016.31 1016.27 1016.16 1015.98 1015.75 1015.48 1015.20 1014.92 1014.66 1014.45 1014.30 1014.22 1014.20 1014.25 1014.36 1014.53 1014.73 1014.97 1015.22
1008.86 1009.00 1009.16 1009.34 1009.55 1009.79 1010.03 1010.29 1010.57 1010.85 1011.14 1011.46 1011.79 1012.14 1012.51 1012.90 1013.30 1013.70 1014.09 1014.46 1014.80 1015.10 1015.34 1015.51 1015.62 1015.65 1015.60 1015.48 1015.30 1015.08 1014.82 1014.56 1014.30 1014.07 1013.88 1013.74 1013.67 1013.66 1013.71 1013.82 1013.99 1014.20 1014.44
1008.10 1008.22 1008.35 1008.51 1008.69 1008.88 1009.09 1009.31 1009.54 1009.79 1010.06 1010.35 1010.67 1011.01 1011.38 1011.77 1012.18 1012.60 1013.01 1013.41 1013.78 1014.10 1014.38 1014.60 1014.75 1014.83 1014.84 1014.79 1014.67 1014.51 1014.31 1014.09 1013.85 1013.63 1013.43 1013.27 1013.15 1013.09 1013.09 1013.14 1013.26 1013.44 1013.66
1007.37 1007.48 1007.60 1007.73 1007.87 1008.02 1008.18 1008.36 1008.54 1008.75 1008.98 1009.25 1009.55 1009.88 1010.25 1010.65 1011.07 1011.50 1011.92 1012.32 1012.69 1013.02 1013.30 1013.53 1013.71 1013.82 1013.88 1013.89 1013.85 1013.76 1013.64 1013.49 1013.32 1013.14 1012.96 1012.80 1012.67 1012.57 1012.52 1012.53 1012.60 1012.73 1012.93
1006.71 1006.82 1006.93 1007.05 1007.15 1007.26 1007.38 1007.49 1007.63 1007.79 1007.98 1008.22 1008.50 1008.82 1009.19 1009.59 1010.00 1010.43 1010.84 1011.23 1011.58 1011.89 1012.15 1012.37 1012.55 1012.68 1012.77 1012.83 1012.86 1012.86 1012.84 1012.78 1012.70 1012.60 1012.48 1012.35 1012.23 1012.12 1012.04 1012.01 1012.04 1012.15 1012.32
1006.17 1006.29 1006.41 1006.51 1006.59 1006.66 1006.73 1006.79 1006.87 1006.98 1007.12 1007.32 1007.57 1007.88 1008.23 1008.62 1009.03 1009.44 1009.83 1010.18 1010.50 1010.77 1011.00 1011.19 1011.34 1011.47 1011.58 1011.69 1011.78 1011.87 1011.95 1012.01 1012.04 1012.04 1012.00 1011.93 1011.84 1011.75 1011.67 1011.63 1011.64 1011.72 1011.88
1005.80 1005.94 1006.06 1006.15 1006.21 1006.25 1006.27 1006.28 1006.30 1006.35 1006.44 1006.59 1006.81 1007.08 1007.41 1007.78 1008.17 1008.56 1008.92 1009.24 1009.52 1009.74 1009.92 1010.06 1010.18 1010.30 1010.42 1010.56 1010.71 1010.89 1011.06 1011.23 1011.37 1011.48 1011.54 1011.56 1011.53 1011.48 1011.42 1011.38 1011.38 1011.45 1011.61
1005.61 1005.77 1005.89 1005.98 1006.02 1006.02 1005.98 1005.94 1005.89 1005.88 1005.91 1006.01 1006.18 1006.42 1006.72 1007.07 1007.43 1007.80 1008.13 1008.42 1008.66 1008.84 1008.97 1009.08 1009.17 1009.26 1009.39 1009.55 1009.75 1009.99 1010.25 1010.51 1010.76 1010.97 1011.13 1011.23 1011.28 1011.28 1011.26 1011.25 1011.26 1011.34 1011.49
Thickness
5759 5759 5758 5757 5758 5758 5758 5758 5758 5758 5758 5758 5757 5757 5756 5754 5753 5751 5750 5749 5748 5747 5746 5745 5743 5742 5741 5739 5737 5735 5734 5732 5731 5730 5728 5727 5726 5724 5723 5722 5721 5720 5718
5759 5758 5757 5757 5757 5757 5757 5757 5757 5757 5757 5757 5756 5756 5755 5754 5752 5751 5750 5749 5748 5747 5746 5745 5744 5742 5740 5739 5737 5736 5734 5733 5731 5730 5729 5727 5726 5724 5723 5722 5721 5720 5718
5759 5758 5757 5756 5756 5756 5756 5756 5756 5756 5756 5756 5755 5755 5754 5753 5752 5751 5750 5749 5748 5747 5746 5745 5743 5742 5740 5739 5737 5736 5734 5733 5732 5730 5729 5727 5726 5724 5723 5722 5721 5720 5719
5759 5757 5756 5756 5755 5755 5755 5755 5754 5754 5753 5753 5753 5753 5753 5752 5751 5750 5749 5748 5747 5746 5746 5745 5743 5742 5740 5739 5737 5736 5735 5734 5732 5731 5729 5727 5726 5724 5723 5722 5721 5720 5718
5759 5757 5756 5755 5754 5754 5753 5753 5752 5752 5750 5750 5750 5751 5751 5750 5750 5749 5748 5747 5746 5745 5744 5744 5743 5741 5740 5739 5737 5736 5735 5733 5733 5731 5729 5728 5726 5725 5723 5722 5720 5719 5718
5759 5757 5756 5755 5754 5753 5751 5751 5750 5750 5748 5748 5749 5748 5748 5748 5748 5747 5747 5746 5745 5744 5743 5742 5741 5740 5739 5738 5737 5736 5735 5734 5733 5731 5730 5728 5726 5725 5723 5722 5720 5719 5718
5759 5758 5756 5754 5753 5751 5750 5750 5748 5747 5745 5746 5744 5742 5744 5745 5745 5745 5745 5744 5744 5742 5741 5740 5740 5739 5738 5738 5737 5736 5735 5734 5733 5732 5730 5728 5727 5726 5724 5722 5721 5719 5718
5760 5759 5757 5754 5753 5751 5750 5749 5747 5745 5744 5744 5740 5736 5734 5736 5740 5743 5743 5742 5742 5741 5740 5739 5739 5738 5737 5737 5736 5736 5735 5734 5733 5732 5730 5729 5727 5726 5725 5723 5721 5719 5717
5761 5760 5758 5756 5754 5752 5750 5749 5748 5744 5741 5741 5741 5737 5731 5728 5731 5737 5739 5740 5739 5739 5738 5738 5738 5737 5736 5736 5735 5735 5734 5734 5733 5732 5730 5729 5728 5726 5725 5723 5721 5719 5717
5761 5760 5759 5757 5755 5753 5751 5750 5748 5746 5743 5739 5739 5739 5737 5734 5729 5728 5733 5736 5737 5736 5736 5736 5736 5735 5735 5734 5734 5734 5733 5732 5731 5731 5730 5728 5727 5726 5724 5722 5720 5719 5717
5761 5760 5759 5757 5755 5754 5752 5750 5748 5746 5744 5741 5739 5737 5736 5733 5732 5727 5726 5730 5732 5734 5734 5734 5734 5733 5733 5732 5732 5732 5731 5731 5730 5729 5728 5727 5726 5724 5723 5721 5720 5718 5717
5759 5759 5758 5757 5755 5754 5752 5750 5749 5746 5744 5742 5740 5738 5735 5732 5730 5728 5725 5726 5727 5730 5732 5733 5732 5732 5731 5730 5730 5730 5730 5729 5728 5727 5726 5724 5723 5722 5720 5719 5718 5717 5715
5758 5758 5757 5756 5755 5753 5751 5750 5748 5746 5744 5742 5740 5738 5737 5735 5734 5730 5726 5724 5724 5726 5729 5730 5730 5729 5729 5728 5728 5728 5727 5726 5725 5724 5723 5722 5720 5719 5718 5716 5715 5714 5713
5759 5758 5757 5756 5754 5753 5751 5749 5747 5745 5744 5742 5740 5738 5736 5735 5734 5731 5728 5724 5720 5721 5723 5725 5727 5726 5726 5725 5725 5724 5724 5723 5722 5721 5720 5719 5717 5716 5714 5713 5712 5710 5709
5761 5759 5757 5755 5754 5752 5750 5748 5746 5744 5743 5741 5739 5737 5735 5734 5733 5731 5729 5726 5721 5716 5717 5721 5722 5723 5722 5721 5721 5720 5720 5720 5718 5717 5716 5715 5713 5712 5711 5709 5708 5706 5705
5760 5758 5756 5754 5752 5751 5749 5747 5745 5744 5741 5739 5737 5735 5734 5733 5731 5730 5727 5725 5722 5719 5715 5717 5717 5718 5717 5717 5717 5716 5716 5715 5714 5713 5712 5710 5708 5708 5706 5705 5703 5701 5700
5758 5756 5755 5753 5751 5749 5747 5746 5744 5742 5739 5737 5735 5734 5732 5731 5729 5727 5725 5723 5720 5717 5713 5714 5714 5714 5712 5712 5712 5711 5711 5710 5709 5709 5707 5706 5704 5702 5701 5700 5698 5695 5694
5757 5755 5753 5751 5749 5747 5746 5744 5742 5739 5736 5734 5733 5731 5730 5728 5726 5724 5722 5720 5718 5716 5712 5709 5709 5708 5707 5706 5706 5705 5705 5705 5704 5703 5702 5701 5699 5697 5696 5694 5692 5690 5689
5754 5752 5750 5748 5747 5745 5743 5741 5739 5737 5735 5733 5731 5729 5727 5725 5722 5720 5718 5716 5714 5713 5709 5706 5704 5702 5701 5701 5699 5699 5699 5698 5698 5697 5696 5695 5693 5692 5690 5689 5687 5685 5684
5751 5749 5748 5746 5744 5742 5740 5738 5736 5733 5731 5730 5728 5726 5724 5722 5720 5717 5715 5712 5710 5707 5704 5700 5698 5696 5695 5693 5692 5692 5691 5691 5690 5690 5689 5688 5687 5685 5684 5683 5682 5680 5678
5748 5746 5744 5741 5740 5738 5736 5734 5732 5730 5727 5725 5723 5721 5720 5719 5717 5714 5712 5708 5705 5701 5698 5694 5691 5690 5688 5686 5685 5684 5684 5683 5682 5682 5681 5680 5679 5678 5677 5676 5675 5674 5672
5744 5742 5739 5736 5734 5734 5733 5730 5727 5725 5723 5720 5718 5716 5715 5714 5712 5710 5707 5705 5701 5697 5693 5689 5687 5684 5683 5682 5680 5678 5677 5675 5674 5675 5674 5673 5672 5671 5670 5669 5668 5667 5666
5739 5736 5733 5731 5729 5728 5727 5724 5722 5720 5717 5715 5713 5711 5710 5709 5706 5703 5701 5698 5695 5693 5691 5687 5683 5681 5679 5678 5675 5672 5670 5669 5668 5668 5666 5666 5665 5664 5663 5662 5661 5660 5659
5730 5728 5726 5725 5723 5722 5720 5718 5716 5714 5712 5709 5707 5705 5703 5701 5699 5696 5693 5690 5687 5685 5684 5682 5680 5678 5676 5673 5670 5668 5665 5663 5661 5660 5660 5658 5658 5656 5656 5655 5654 5653 5652
5723 5721 5720 5718 5716 5715 5713 5711 5709 5706 5704 5702 5701 5699 5696 5693 5692 5689 5686 5682 5679 5677 5676 5675 5673 5671 5669 5666 5663 5660 5656 5654 5653 5653 5652 5651 5650 5649 5648 5648 5647 5645 5644
5715 5714 5712 5711 5710 5708 5707 5704 5702 5699 5696 5694 5692 5690 5688 5686 5684 5681 5678 5674 5671 5669 5667 5666 5664 5662 5659 5657 5654 5652 5650 5648 5646 5645 5645 5642 5641 5640 5640 5640 5638 5637 5636